Flag for Mexico Weather past 2 weeks in Playa del Carmen, Quintana Roo, Mexico

Now
77 °F

Passing clouds.


Feels Like: 78 °F
Forecast: 79 / 87 °F
Wind: No wind

Location: Cozumel Civ / Mil

Current Time: May 26, 2015 at 11:13:26 PM

Latest Report: May 26, 2015 at 9:42 PM


Visibility: 7 mi

Pressure: 30.04 "Hg

Humidity: 89%

Dew point: 73 °F

Location of Playa del CarmenLocation

Historic Weather in Playa del Carmen — Graph

°F

Playa del Carmen temperature yesterday

Maximum temperature yesterday: 88 °F (at 1:40 PM)
Minimum temperature yesterday: 72 °F (at 3:45 AM)
Average temperature yesterday: 79 °F

Past Weeks' High & Low Weather Summary

 TemperatureHumidityPressure
High88 °F (May 17, 12:46 PM)100% (May 12, 1:40 AM)30.14 "Hg (May 12, 1:40 AM)
Low66 °F (May 20, 4:45 AM)55% (May 22, 2:47 PM)29.93 "Hg (May 20, 6:40 PM)
Average78 °F83%30.02 "Hg
* Reported May 11 9:41 PM — May 26 9:42 PM, Playa del Carmen, Weather by CustomWeather, © 2015

Note: Actual official high and low records may vary slightly from our data, if they occured in-between our weather recording intervals... More about our weather records

Advertising

Playa del Carmen weather history for previous 24 hours

 ConditionsComfort  
Time TempWeatherWind HumidityBarometerVisibility
9:42 PM
Tue, May 26
77 °FPassing clouds.No wind89%30.04 "Hg7 mi
8:40 PM77 °FPassing clouds.No wind89%30.01 "Hg7 mi
7:45 PM79 °FScattered clouds.No wind84%30.00 "Hg7 mi
5:45 PM81 °FScattered clouds.14 mph79%29.98 "Hg8 mi
4:43 PM86 °FScattered clouds.17 mph66%29.97 "Hg8 mi
3:45 PM86 °FScattered clouds.17 mph66%30.01 "Hg8 mi
12:50 PM86 °FScattered clouds.12 mph62%30.00 "Hg8 mi
11:51 AM86 °FScattered clouds.13 mph66%30.05 "Hg8 mi
10:48 AM84 °FScattered clouds.13 mph70%30.05 "Hg8 mi
9:47 AM84 °FScattered clouds.13 mph70%30.07 "Hg8 mi
6:43 AM73 °FPassing clouds.No wind94%29.99 "Hg7 mi
4:45 AM75 °FPassing clouds.No wind89%29.98 "Hg7 mi
3:51 AM77 °FPassing clouds.No wind83%29.99 "Hg7 mi
2:43 AM75 °FPassing clouds.No wind94%29.97 "Hg7 mi
1:41 AM75 °FPassing clouds.No wind94%29.98 "Hg7 mi
12:41 AM77 °FPassing clouds.No wind89%29.99 "Hg7 mi
11:45 PM
Mon, May 25
77 °FPassing clouds.No wind89%30.03 "Hg7 mi
Weather by CustomWeather, © 2015

See weather overviewHow to use our weather pages